Location: Unspecified
(0.0000°N, 0.0000°E)
Time: 07:12:50
(UTC+00:00)

Transit 4A - Pass Details

Date: 19 December 2018
Orbit: 862 x 983 km, 66.8° (Epoch: 15 June)

Event Time Altitude Azimuth Distance (km) Brightness Sun altitude
Rises 13:43:02 0° 317° (NW) 3,620 11.0 55.2°
Reaches altitude 10° 13:45:57 10° 306° (NW) 2,692 10.5 54.7°
Maximum altitude 13:51:08 27° 250° (WSW) 1,769 10.6 53.7°
Drops below altitude 10° 13:56:26 10° 194° (SSW) 2,733 11.0 52.8°
Sets 13:59:26 0° 182° (S) 3,685 11.4 52.2°
